VDSRVDPP

Guest
Details From VDSR - Siem Reap
To VDPP - Phnom Penh Intl
Flight Number -
Tags generated
Created
Modified
Stats Distance 128 nm / 237 km
Max Altitude 6,000 ft / 1,829 m
Waypoints 4
Social Downloads 1
Likes 0
Share VATSIM

Download

Looking for another format? Having issues loading an existing format? Contact us
Advertisement - Login to hide

Notes

Basic altitude profile: - Ascent Rate: 1500ft/min - Ascent Speed: 250kts - Cruise Altitude: 11000ft - Cruise Speed: 270kts - Descent Rate: 1500ft/min - Descent Speed: 250kts Options: - Use NATs: yes - Use PACOTS: yes - Use low airways: yes - Use high airways: yes

Route

VDSR SRE W1 PNH VDPP

ID Type Via Altitude Latitude Longitude Leg Dist Tot Dist Heading (true) Name
O VDSR APT - 0 ft / 0 m 13.41067˚ 103.81283˚ - 0 nm - Siem Reap
SRE VOR - 200 ft / 61 m 13.41500˚ 103.82167˚ 0 nm 0 nm 63° / 63° SIEM REAP VOR-DME
PNH VOR W1 (AWY-LO) 6,000 ft / 1,829 m 11.54667˚ 104.84167˚ 127 nm 127 nm 152° / 152° PHNOM PENH VOR-DME
O VDPP APT - 0 ft / 0 m 11.54654˚ 104.84414˚ 0 nm 127 nm 93° / 93° Phnom Penh Intl

Altitude Profile

Advertisement - Login to hide

VDSR

Details ICAO VDSR (REP)
Name Siem Reap
Region Cambodia
Timezone Asia/Phnom_Penh (UTC+7.0)
Stats Elevation 60 ft / 18 m (AMSL)
Location 13.410667° 103.812832°
Runways 1
Magnetic Variation 0.618° W

METAR

VDSR 121130Z 00000KT 9999 SCT017 28/22 Q1009

Decode

TAF

Not found

Departure Runways

ID Width Length Bearing (true) Bearing (mag) Surface Threshold Offset Overrun Length
05 148 ft / 45 m 8,384 ft / 2,555 m 47.81° 48.43° Concrete 450 ft / 137 m 0 ft / 0 m
23 148 ft / 45 m 8,384 ft / 2,555 m 227.82° 228.44° Concrete 450 ft / 137 m 0 ft / 0 m

VDPP

Details ICAO VDPP (PNH)
Name Phnom Penh Intl
Region Cambodia
Timezone Asia/Phnom_Penh (UTC+7.0)
Stats Elevation 40 ft / 12 m (AMSL)
Location 11.546542° 104.844142°
Runways 1
Magnetic Variation 0.493° W

METAR

VDPP 121200Z 04002KT 9999 FEW017 SCT040 30/21 Q1009

Decode

TAF

TAF VDPP 121100Z 1212/1306 25005KT 9999 SCT017 SCT040= TAF VDSR 121100Z 1212/1306 34007KT 9999 SCT017 SCT040

Decode

Destination Runways

ID Width Length Bearing (true) Bearing (mag) Surface Threshold Offset Overrun Length
05 144 ft / 44 m 9,815 ft / 2,992 m 45.61° 46.10° Asphalt 400 ft / 122 m 0 ft / 0 m
23 144 ft / 44 m 9,815 ft / 2,992 m 225.61° 226.10° Asphalt 492 ft / 150 m 0 ft / 0 m

Approach Navaids

Runway Type Ident Frequency Range Bearing (true) Bearing (mag) Slope Elevation
23 Localiser IPNP 109.70 MHz 18 nm / 33 km 225.62° 226.11° - 40 ft / 12 m (AMSL)
23 Glidescope IPNP 109.70 MHz 10 nm / 19 km 225.61° 226.10° 3.00° 37 ft / 11 m (AMSL)

Popular Alternatives